Commit Graph

606 Commits

Author SHA1 Message Date
David Rose 4b5eed144f firefox fix 2009-09-10 01:02:04 +00:00
David Rose fc762d8f09 JS features 2009-09-10 00:38:35 +00:00
David Rose f340a4ea3f more cleanup 2009-09-10 00:00:53 +00:00
David Rose 205a478b9d preserve $DISPLAY 2009-09-09 23:23:24 +00:00
David Rose 61a6522314 cleanups 2009-09-09 19:36:37 +00:00
David Rose fd62333192 alpha blending for x11 2009-09-09 16:44:57 +00:00
David Rose da59dc9063 x11 buttons are responsive now 2009-09-09 01:44:18 +00:00
David Rose b71e4e1a35 protect from reentry 2009-09-09 01:30:21 +00:00
David Rose ab5f99fb20 missing file 2009-09-09 01:19:54 +00:00
David Rose 1513171ae8 wip, x11 button handling 2009-09-09 00:55:23 +00:00
David Rose 3c5259d286 button support, win32 2009-09-08 22:11:06 +00:00
David Rose 29276c2039 don't need bigendian treatment with Quartz 2009-09-08 20:41:34 +00:00
David Rose 2cbd760b69 compilation errors 2009-09-08 20:19:28 +00:00
David Rose 76679a765f auto_start (wip) 2009-09-08 19:46:06 +00:00
David Rose 2fa6ab7128 openssl dependency 2009-09-08 18:13:11 +00:00
David Rose df671dc334 consistent code with panda 2009-09-06 22:54:50 +00:00
David Rose 4f2d4d337e whoops, non-windows fix 2009-09-03 04:04:01 +00:00
David Rose cc5a38f40a minor fix 2009-09-03 02:27:53 +00:00
David Rose 194979b51d clean exit and log reporting 2009-09-03 02:09:21 +00:00
David Rose 58555a2895 windows issues 2009-09-01 00:18:31 +00:00
David Rose 201cdf2c86 mac issues 2009-08-31 23:00:52 +00:00
David Rose e74c4a0c8f support _d.dll in debug build 2009-08-31 22:33:24 +00:00
David Rose 1415193b5e separate out p3dpython.exe and libp3dpython.dll 2009-08-31 22:25:32 +00:00
David Rose 671e3e5e85 compile on win32 2009-08-31 19:31:28 +00:00
David Rose 5fc0a429f6 RTLD_LAZY 2009-08-31 16:36:50 +00:00
David Rose f8e7cbfb27 no longer need static python library 2009-08-31 14:56:03 +00:00
David Rose ca13be76d2 compiler error 2009-08-31 14:29:34 +00:00
David Rose 7b34234edc interactive_console 2009-08-30 21:10:30 +00:00
David Rose aca9915060 missing file 2009-08-29 23:08:55 +00:00
David Rose 4388b853e5 one_process support. Some issues. 2009-08-29 23:08:00 +00:00
David Rose 93e7352476 python_dev mode 2009-08-29 02:00:30 +00:00
David Rose 8c9032dca3 VFSImporter.sharedPackages 2009-08-28 23:51:47 +00:00
David Rose 15175c727d explicit calls instead of PyRun_SimpleString 2009-08-28 17:59:27 +00:00
David Rose 8b77da64df preload libpandaexpress 2009-08-28 02:52:24 +00:00
David Rose 970f35a3e6 use _vfsimporter.pyd instead of runp3d_frozen.pyd 2009-08-28 01:55:05 +00:00
David Rose 95a6051462 debug statement 2009-08-26 19:43:12 +00:00
David Rose a4fcdbe5b9 P3D_check_request(timeout) 2009-08-26 19:42:36 +00:00
David Rose 1fc186bda4 move <config> to within the <package> 2009-08-26 05:04:15 +00:00
David Rose 81363c4ba9 PackageInstaller, runtime package installation 2009-08-25 21:40:57 +00:00
David Rose f39222cd1d re-order version and platform in filenames, again 2009-08-24 19:39:04 +00:00
David Rose bfb948c5a8 integrate make_contents into Packager 2009-08-24 18:42:47 +00:00
David Rose 29345bbc38 better splash image management 2009-08-24 03:29:10 +00:00
David Rose 9c576983f9 remove RT_post_url 2009-08-23 06:13:47 +00:00
David Rose d5528ab21f auto-download _import files 2009-08-23 05:40:06 +00:00
David Rose d8859828ef move code to p3d directory for better organization 2009-08-23 02:00:03 +00:00
David Rose cf6a220cb7 minor tweaks 2009-08-22 22:17:05 +00:00
David Rose f6863b7b7a compiler warnings 2009-08-22 21:46:02 +00:00
David Rose 29a65d32a9 osx toplevel splash windows 2009-08-22 21:26:25 +00:00
David Rose 9a638bfd2a toString() 2009-08-22 01:22:24 +00:00
David Rose f34abe4411 'main' object 2009-08-21 22:42:35 +00:00
David Rose 6caeb369d6 slightly less hacky 2009-08-21 21:50:49 +00:00
David Rose 6cebf531c6 defunct script 2009-08-21 21:47:12 +00:00
David Rose df978c88b2 verify_contents 2009-08-21 19:00:50 +00:00
David Rose ae8c460b1b wip: host support 2009-08-21 15:47:39 +00:00
David Rose d163bc6412 executable p3d's 2009-08-20 23:13:10 +00:00
David Rose 42bef14dac more tempfile nonsense 2009-08-20 19:05:11 +00:00
David Rose c4e79695e9 minor fixes to reduce startup noise 2009-08-20 15:46:31 +00:00
David Rose 5289285624 more robust temp file and log handling 2009-08-20 00:24:00 +00:00
David Rose da2f1cd9c9 better frozen module handling 2009-08-19 18:35:21 +00:00
David Rose 625690fdb1 fix args 2009-08-19 01:34:34 +00:00
David Rose 25117835e0 sigaction 2009-08-19 00:17:04 +00:00
David Rose 3329c91dba more fixes 2009-08-19 00:01:50 +00:00
David Rose 3002e8b571 VFSImporter.reload_packages() 2009-08-18 21:39:43 +00:00
David Rose 1f35c93fb6 bar placement 2009-08-17 19:34:28 +00:00
David Rose 1c2ac14550 bar placement 2009-08-17 19:33:21 +00:00
David Rose b050687720 oops, need to XFreeColor. 2009-08-17 19:30:41 +00:00
David Rose de2788c4cc rework a bit for linux progress bar 2009-08-17 19:24:54 +00:00
David Rose 95b4011312 minor fixes 2009-08-17 18:18:42 +00:00
David Rose 1dda2cfb99 command-line arguments 2009-08-17 16:03:49 +00:00
David Rose 8f96fa71f5 p3d_url 2009-08-16 17:36:44 +00:00
David Rose e7daad7dce some fixes 2009-08-15 18:59:53 +00:00
David Rose 936ff2455e some cleanup 2009-08-15 00:13:55 +00:00
David Rose 21c514fd2b linux 2009-08-14 01:00:43 +00:00
David Rose bcbd40848d tweaking gui 2009-08-13 17:17:27 +00:00
David Rose 29c1d34cf6 serialize package download 2009-08-13 08:18:15 +00:00
David Rose 687961b626 package dependencies 2009-08-13 01:08:06 +00:00
David Rose 18e9180439 xml, compression 2009-08-09 16:07:17 +00:00
David Rose c1fea52cab fix firefox crash on osx 2009-08-08 02:20:39 +00:00
David Rose e0a4fcda2d python error message 2009-08-07 18:14:20 +00:00
David Rose 57455b775b oops, debug output 2009-08-04 23:34:24 +00:00
David Rose f3751431b5 hidden plugins 2009-08-04 23:29:40 +00:00
David Rose 0faaf90a06 add DYLD_LIBRARY_PATH 2009-08-04 01:45:41 +00:00
David Rose e0b1994b61 more download status notifications 2009-08-04 01:41:09 +00:00
David Rose 4bac1d3314 linux issues 2009-08-03 19:48:37 +00:00
David Rose 6ebcfc5f89 integrate DTOOL_PLATFORM etc 2009-08-03 19:43:48 +00:00
David Rose 14efb1cbaf support a windows debug plugin 2009-07-30 19:28:27 +00:00
rdb 7da61abf33 Fix small but deadly typo 2009-07-30 07:38:26 +00:00
David Rose 18af305b4a fix osx embedding 2009-07-29 20:29:28 +00:00
David Rose 7293844e4a better download rules 2009-07-29 19:58:26 +00:00
David Rose 17454474fb win32 2009-07-29 17:16:35 +00:00
David Rose ac0f84ace1 mkdir issues 2009-07-29 16:33:40 +00:00
David Rose 6b6a90e1b0 some minor cleanup 2009-07-29 12:35:16 +00:00
David Rose 704a6bf653 robustness 2009-07-28 20:31:03 +00:00
David Rose 6b908cb525 a few race conditions 2009-07-28 20:17:14 +00:00
David Rose bf179efd76 some window confusions 2009-07-28 19:11:40 +00:00
rdb 8585dd6cb3 URL fix for plugin as well. Oh, let's force logfile 3 to be in a temp dir, because letting the user specify it would be a security leak. 2009-07-22 12:50:48 +00:00
rdb af7827c42a Auto temp logfile path 2009-07-22 10:43:08 +00:00
David Rose 6174ae7228 allow resizing subprocess buffer 2009-07-22 07:07:57 +00:00
David Rose 82dbc95f8e have_jpeg 2009-07-22 01:35:23 +00:00
David Rose 2d3fd6e709 make panda3d.exe download the core API too 2009-07-22 01:04:19 +00:00
David Rose 865ea20789 use a timer on mac for smoother updates 2009-07-21 20:19:47 +00:00
David Rose 31f2ce467d fix problem with pthread_cond_timedwait 2009-07-21 05:25:36 +00:00
David Rose f60864c31c comment out assert 2009-07-21 01:53:09 +00:00
David Rose e4cb7fe829 very minor 2009-07-21 00:46:07 +00:00
David Rose a86a95b4ec fix up X11 threading issues 2009-07-20 23:03:23 +00:00
rdb 9775f132c2 Don't protect by __name__=='__main__' so we can import this from makepanda directly 2009-07-20 16:50:49 +00:00
David Rose 74d2ff3b54 some minor fixes 2009-07-19 20:26:26 +00:00
David Rose 07e714bb16 more needs_response changes 2009-07-19 18:15:52 +00:00
David Rose 563bd81b68 small optimization: has_method cache 2009-07-19 03:18:07 +00:00
David Rose efdeacb577 actually write binary xml 2009-07-19 02:58:13 +00:00
David Rose c8892d4991 minor fixes 2009-07-18 00:36:44 +00:00
David Rose 94f07118c1 subprocess mouse movement 2009-07-17 21:30:51 +00:00
David Rose 064f62f202 default non-threaded 2009-07-17 19:01:35 +00:00
David Rose b01400ff97 migrate refresh requests into core api 2009-07-17 18:46:10 +00:00
David Rose 5448505f3a revert hack again 2009-07-17 18:37:09 +00:00
David Rose 4efc3ba42f better thread yielding 2009-07-17 18:36:32 +00:00
David Rose fb782894eb file streaming, logfile cleanup 2009-07-17 17:33:12 +00:00
David Rose e99a50cb14 fix draw problems 2009-07-17 05:29:25 +00:00
David Rose 72da887fd5 osx splash window 2009-07-17 01:39:41 +00:00
David Rose d3f6fb5b81 quartz experiment 2009-07-16 20:26:17 +00:00
David Rose 5d4bd04eab combine row-reversal and byte-reversal 2009-07-16 19:22:57 +00:00
David Rose aa8285f5a4 async JavaScript 2009-07-16 18:30:17 +00:00
David Rose 1a78b5851d compensate for byte order 2009-07-16 01:49:44 +00:00
David Rose 375fd5c352 revert hack 2009-07-16 01:48:54 +00:00
David Rose 7037e909d9 temp hack 2009-07-16 01:48:25 +00:00
David Rose a088d7ff72 more research on windows problems 2009-07-15 18:36:38 +00:00
David Rose c8721364ab experiment with quartz 2009-07-15 15:25:58 +00:00
David Rose 339cb4e7a2 secs -> ms 2009-07-15 00:27:58 +00:00
David Rose e915c44328 posix kill 2009-07-15 00:14:38 +00:00
David Rose bf417aca6b some minor fixes 2009-07-15 00:14:08 +00:00
David Rose 6794656499 silly python headers 2009-07-14 21:01:19 +00:00
David Rose 1b6bb92da5 concrete objects 2009-07-14 20:40:47 +00:00
rdb 3f987b530f Fix typo: "Pythong" -> "Python" ;-) 2009-07-14 15:18:08 +00:00
rdb 82b3575664 Minor fixes 2009-07-14 15:16:06 +00:00
David Rose 4e9902fab3 pthread_cond_timedwait returns its errno value 2009-07-14 14:54:33 +00:00
rdb 1bec439304 Fix compile errors on Linux 2009-07-14 07:04:26 +00:00
David Rose 91fde2b3ed oops, debug code 2009-07-14 04:56:56 +00:00
David Rose d5b4f7810e attempts to make windows plugin more stable 2009-07-14 04:50:25 +00:00
David Rose 2c33bc2bd3 fix some race conditions 2009-07-13 18:41:55 +00:00
David Rose a181e471be osx plugin key events etc 2009-07-13 17:03:26 +00:00
David Rose 916f94f57c oops 2009-07-13 14:55:30 +00:00
David Rose 9fa212a48a embed plugin windows within OSX browsers properly 2009-07-13 07:14:30 +00:00
David Rose 4dd7ebec82 firefox fixes 2009-07-11 03:51:01 +00:00
David Rose 4ee298e942 some minor problems 2009-07-11 01:16:33 +00:00
David Rose 19e6ffd5ee support pre-python properties 2009-07-10 20:05:14 +00:00
David Rose 3e8b1c6ffd thread-safe macro wrappers 2009-07-10 17:49:04 +00:00
rdb 477c1f3194 JPG splash image on X11 splash window 2009-07-10 13:59:38 +00:00
rdb 2ac1a3d707 Handle resizing of X11 splash window correctly, and remove the annoying log2 message of download progress 2009-07-10 09:07:56 +00:00
David Rose 33a94a3996 tweaks 2009-07-10 00:17:30 +00:00
David Rose dc6c73108c add thread-safe reference count functions 2009-07-10 00:14:25 +00:00
David Rose 4d2ffd8e77 much better object model 2009-07-09 23:59:17 +00:00
David Rose 98177dc123 found a leak 2009-07-09 20:22:03 +00:00
David Rose fbf81f90eb P3D_object needs to be reference-counted 2009-07-09 20:14:19 +00:00
David Rose e214d8c9ef more general rgb fix 2009-07-09 18:43:24 +00:00
David Rose 68fd96555c correct RGB reversal 2009-07-09 18:33:22 +00:00
David Rose 3f6d8ab9b1 better object_id pointer passing 2009-07-09 17:12:27 +00:00
David Rose 7fca7f2e53 minor comment adjustments 2009-07-09 16:46:28 +00:00
rdb e7ebf32905 Improvements to the X11 splash window: now shows a nice progress bar. 2009-07-09 15:55:43 +00:00
rdb 460ea92667 Fix some issues on linux 2009-07-09 14:52:05 +00:00
rdb 474b738f8b More Linux work - the plugin now really works on Linux. 2009-07-09 13:55:32 +00:00
rdb d02b9bd34b Fix compiler warning 2009-07-09 08:26:36 +00:00
David Rose ce23653ac2 add has_method to work around firefox bug 2009-07-09 06:58:54 +00:00
David Rose 66d4fca74b more tweaks 2009-07-09 01:10:19 +00:00
David Rose 095c719f9d resolve confusion between null, none, void, and undefined 2009-07-08 22:31:48 +00:00
David Rose aa171dde99 javascript eval 2009-07-08 21:41:09 +00:00
David Rose cd1af67165 more safari fixes 2009-07-08 18:36:29 +00:00
rdb 4d8ec43ba4 make_package.py doesn't chew x86_64 as platform name, so I renamed it into amd64 2009-07-08 11:46:44 +00:00
rdb de2b7519ff More linux work: store downloaded panda in ~/.panda3d/ instead of /Users/drose/p3ddir 2009-07-08 10:57:16 +00:00
rdb 1856f17d94 Step towards getting the web plugin working on Linux 2009-07-08 10:03:24 +00:00
David Rose 7127006958 callouts 2009-07-08 07:49:54 +00:00
David Rose bc0d953ab5 fix windows crash; fix splash window drawing 2009-07-07 22:33:07 +00:00
David Rose 54732da355 minor space 2009-07-07 19:25:38 +00:00
David Rose 7a00a8cab0 fix crash on exit 2009-07-07 19:23:12 +00:00
David Rose 7f7c3fe373 some more cleanup 2009-07-07 18:30:06 +00:00
David Rose 41ba4f06cb a tiny bit of cleanup 2009-07-07 18:14:27 +00:00
David Rose 25dd6bcc71 outbound scripting 2009-07-07 17:43:41 +00:00
David Rose 8a9358adb3 separate out is_pathsep 2009-07-07 14:58:10 +00:00
rdb 823069d4a6 Revert stupid commit of mine 2009-07-07 13:22:28 +00:00
rdb c67c5a4c14 Fix compile issue, and add plugin_common_composite 2009-07-07 13:18:04 +00:00
David Rose a663c348d3 fix crash 2009-07-07 01:50:02 +00:00
David Rose 59210bf718 more work on outbound scripting 2009-07-07 01:05:41 +00:00
David Rose b2906cda8b windows crashy 2009-07-06 22:34:46 +00:00
David Rose 92265c7134 some windows issues 2009-07-06 21:58:21 +00:00
David Rose 3e8eca5528 osx compilation issues 2009-07-06 19:43:39 +00:00
David Rose 4738f31efd wait-with-timeout 2009-07-06 19:32:18 +00:00
David Rose 94ed0c76c2 compilation errors 2009-07-06 17:45:23 +00:00
David Rose 13552a7041 working on inbound scripting controls 2009-07-06 17:38:41 +00:00
David Rose 47e364b1e1 ditch the P3DListObject 2009-07-05 15:54:53 +00:00
David Rose ed037be160 inbound scripting controls 2009-07-04 19:12:24 +00:00
David Rose 4edcad8821 minor build errors 2009-07-03 22:13:32 +00:00
David Rose 6f2591c642 P3DPythonObject et al 2009-07-03 20:27:50 +00:00
David Rose 006ec7931e typo in posix case 2009-07-03 01:31:13 +00:00
David Rose 891051485d command-and-response 2009-07-03 01:24:50 +00:00
David Rose 8072733c7f compress level 2009-07-02 23:17:30 +00:00
David Rose aa37501b8f try more object-oriented approach to scripting 2009-07-02 23:08:19 +00:00
David Rose 3d4b534a68 replace set_property/get_property with evaluate 2009-07-02 00:00:29 +00:00
David Rose 8c28147996 wip 2009-07-01 19:03:56 +00:00
David Rose 37bbbe2ac9 restore tixml_use_stl 2009-07-01 17:07:42 +00:00
David Rose 204467f5af variant -> value 2009-07-01 17:05:17 +00:00
David Rose 30b413df8b build on python 2.4 2009-07-01 17:00:53 +00:00
David Rose a64a4f09c5 more scriptability wip 2009-07-01 15:52:08 +00:00
rdb b7aa2ead11 Fix compile errors 2009-07-01 08:15:41 +00:00
David Rose f7bc30d8a8 typo 2009-07-01 04:50:33 +00:00
David Rose c966b5f4ed beginning scriptability 2009-07-01 03:10:32 +00:00
David Rose f38724aa92 splash window 2009-06-30 19:18:22 +00:00
David Rose b4973f9c6f remove accidentally committed file 2009-06-30 15:43:45 +00:00
David Rose 596e6e1482 pre-download core API dll 2009-06-30 02:35:48 +00:00
David Rose 5fea6fffd7 jpeg splash images 2009-06-25 01:37:26 +00:00
David Rose 01ced75007 progress bars are back 2009-06-24 22:02:13 +00:00
David Rose 3d73a4434e upcall requests 2009-06-24 11:18:43 +00:00
David Rose ec23ed2a43 cleaner p3d scripts 2009-06-24 09:39:11 +00:00
David Rose 42704cd357 egad, it's really working 2009-06-24 06:40:30 +00:00
David Rose 36eb5bc08a hey its working 2009-06-24 05:33:44 +00:00
David Rose 93f9e9933b minor bugs 2009-06-24 03:58:37 +00:00
David Rose 8bab079cc7 fix a memory bug 2009-06-24 03:51:36 +00:00
David Rose 8a48e4593e it continues 2009-06-24 03:29:08 +00:00
David Rose a6c1759080 no command instance 2009-06-24 00:52:57 +00:00
David Rose 0cce656d0b windowsisms 2009-06-24 00:04:04 +00:00
David Rose 16dd9cb633 urlnotify etc 2009-06-23 23:19:36 +00:00
David Rose 63160f0c1f little refinements 2009-06-23 19:58:46 +00:00
David Rose 2e9355b9bf minor macisms 2009-06-23 04:27:54 +00:00
David Rose 6c73c0d08d more work 2009-06-23 02:11:32 +00:00
David Rose f2437ed29e build on windows 2009-06-22 23:00:07 +00:00
David Rose b64f871ea1 osx plugin work 2009-06-22 21:36:11 +00:00
David Rose cdb4a2c094 change url 2009-06-20 03:57:08 +00:00
David Rose ca983e8ece beginning Mozilla plugin integration 2009-06-20 01:31:31 +00:00
David Rose 84dff5ad19 visible install progress indicator 2009-06-17 22:40:31 +00:00
David Rose ca0dba5d28 mkdir 2009-06-17 04:39:20 +00:00
David Rose e17787885e missing file 2009-06-17 04:36:47 +00:00
David Rose 53231b162b minor tweaks 2009-06-17 04:22:23 +00:00
David Rose 65fd11a4cb includes 2009-06-17 02:48:25 +00:00
David Rose eae96a4738 shell32 2009-06-16 23:02:05 +00:00
David Rose 58e47ab226 assert is_initialized 2009-06-16 23:00:28 +00:00
David Rose 77b6df9fd7 standard install dirs 2009-06-16 21:48:28 +00:00
David Rose 0c123b6bce build on win32 2009-06-16 20:02:03 +00:00
rdb 3d477eec7a Fix compiler errors 2009-06-16 10:37:24 +00:00
David Rose 7d2a154bf5 use multifiles instead of tarfiles 2009-06-16 05:30:00 +00:00
David Rose cbfa38d2b5 simplify ConfigureDecl etc. 2009-06-15 22:25:52 +00:00
David Rose 4f005fbfb5 build with link_all_static 2009-06-15 02:48:35 +00:00
David Rose 7b8edf65b4 callbacks working 2009-06-14 17:38:12 +00:00
David Rose ae3d2aceb4 still working on it 2009-06-14 15:51:32 +00:00
David Rose f34034d7d4 more osx stuff 2009-06-13 03:52:32 +00:00
David Rose 652ca28703 more towards self-downloading 2009-06-13 01:26:18 +00:00
David Rose 43f143be85 build issues 2009-06-12 18:09:48 +00:00
David Rose 704d7686f3 more osx 2009-06-12 16:14:20 +00:00
David Rose 83938771a1 new files 2009-06-12 02:11:26 +00:00
David Rose 1b6814e7ac some self-downloading work 2009-06-12 02:10:53 +00:00
David Rose 427a22573a log files, etc 2009-06-11 20:56:16 +00:00
David Rose e10d398afd beginning port to osx 2009-06-11 16:36:55 +00:00
David Rose ce182cb038 bi-directional communication 2009-06-11 02:20:43 +00:00
David Rose cf761ff85a minor tweaks 2009-06-09 22:50:40 +00:00
David Rose b660d0f3e5 p3dpython can be a Panda app 2009-06-09 20:30:24 +00:00
David Rose 633eae3ba3 exit gracefully 2009-06-09 01:56:03 +00:00
David Rose 10d51dafb6 support python in a child process, multiple pythons now possible 2009-06-09 00:12:32 +00:00
David Rose 027e5fdc9e more plugin work 2009-06-08 18:08:53 +00:00
David Rose 6f711392aa wip: web plugin 2009-06-05 00:47:03 +00:00